Starlink 32750

operational
NORAD ID: 62572 Int'l Des: 2025-006 Owner: SPXS Country: US Constellation: starlink
LEOCIRCULAR

Über Starlink 32750

Beschreibung wird geladen...

Live-Position

3D-Globus wird geladen...

Nächste Überflüge

Höhenverlauf

Altitude vs Time

uPlot chart will show altitude changes over time

Zweizeiliger Elementsatz

1 62572U 25006U 25302.30529825 .00044044 00000-0 15983-2 0 9995
2 62572 43.0039 314.1719 0002138 272.2380 87.8227 15.27624468 44778
Epoch: 29. Okt. 2025 • Age: 13 hours

Aktueller Status

Höhe 484.8 km
Geschwindigkeit 7.63 km/s
Subsatellitenpunkt 31.55°N, 105.04°E
Startdatum 10. Jan. 2025
Alter 0.7 years
Typ internet

Technische Details

Klassifizierung Payload
Masse 730.00 kg
Trockenmasse 700.00 kg
Gesamtmasse 730.00 kg
Länge 0.30 m
Durchmesser 4.10 m
Spannweite 29.00 m
Form Box + pan
Hersteller SPXS
Bus-Typ Starlink V2M
Phasenstatus In Orbit
Besitzer/Staat SPXS/US

Große Konstellationen

Loading constellations...